Location: Azat
(46.0765°N, 1.7600°E)
Time: 11:15:04
(UTC+00:00)

Cosmos 1980 Rocket - Pass Details

Date: 09 April 2020
Orbit: 828 x 851 km, 71.0° (Epoch: 05 June)

Event Time Altitude Azimuth Distance (km) Brightness Sun altitude
Rises 21:36:25 0° 336° (NNW) 3,388 6.5 -27.8°
Reaches altitude 10° 21:38:55 10° 340° (NNW) 2,453 5.5 -28.0°
Enters shadow 21:44:04 57° 41° (NE) 982 2.5 -28.6°
